User: anonymous   Login
Location: Unspecified
(0.0000°N, 0.0000°E)
Time: 22:26:09
(UTC+00:00)
Language:

ZHANGZHENG-1 - Orbit

View from above orbital plane
View from above orbital plane
View from above satellite
View from above satellite

Ground track
Ground track

The orbit is defined by the following mean orbital elements,

1 43194U          26145.63576292 +.00000000 +00000-0 +27674-3 0 00001
2 43194  97.6855 310.8507 0015817 346.7866  13.2952 15.21023310    09
Epoch (UTC): 25 May 2026 15:15:29
Eccentricity: 0.0015817
inclination: 97.6855°
perigee height: 492 km
apogee height: 514 km
right ascension of ascending node: 310.8507°
argument of perigee: 346.7866°
revolutions per day: 15.21023310
mean anomaly at epoch: 13.2952°

The dashed part of the orbit path shows where the satellite is in the earth's shadow,  

DLR